Airfield :
LOGIN :

Register | Disclaimer

   EN    FR    IT 

 










Legend :    VFR   Marginal VFR   IFR   Intensive IFR   Very Intensive IFR
Visi :
Ceiling :
>= 8 km
>= 3000ft
5 to 8 km
1000 to 3000 ft
1500m to 5 km
500 to 1000 ft
800 to 1500m
200 to 500 ft
< 800m
< 200 ft
Symbols :   Thunderstorms  Fog  Heavy snow  Heavy precipitations  Wind > 20 kt
SIGMETs :     Misc.  Thunderstorms  Icing  Turbulence  Mountain Waves  Volcanic Ashes







- Airport Elevation : 16 ft
- IATA code : SDR


LEXJ - Santander Cantabria

CURRENT METAR :
  • 191200Z 04008KT 350V090 9999 FEW018 BKN044 20/17 Q1023

EXPIRED METARs :
  • 191130Z 04007KT 350V080 9999 FEW016 BKN042 20/18 Q1023
  • 191100Z 04008KT 350V080 9999 FEW016 BKN042 20/17 Q1024
  • 191030Z 04007KT 350V080 9999 FEW016 BKN038 19/17 Q1024
  • 191000Z 05008KT 010V100 9999 FEW018 BKN036 20/18 Q1024
  • 190930Z 04008KT 360V100 9999 FEW017 BKN032 19/17 Q1024

TAF TAF LEXJ
Valid from the 19 at 09:00 until the 20 at 09:00 UTC


190800Z 1909/2009 VRB04KT 9999 FEW010 BKN030 TX23/1915Z TN15/2005Z
TEMPO 1910/1919 06011KT
PROB40
TEMPO 1922/2006 3000 BR
No reported NOTAMs for that airfield.



MET'MAP, your aeronautical weather chart ! - Copyright ORBIFLY December 2007 - Disclaimer

ORBIFLY MET'MAP TEAM :

Programming & Development : Alexandra Zaïnal
Concept & Development : Baudouin d'Aumeries
Co-Development & Prog : Marc-Olivier Méhu
Technical & hardware support : Manuel Goepfert

Contact : metmap@orbifly.com




SOURCES & CREDITS :

   NOAA